Location: Mahannah Oil Field
(37.4664°N, 96.6003°W)
Time: 03:48:16
(UTC+00:00)

Vanguard 2 - Pass Details

Date: 21 June 2021
Orbit: 552 x 2937 km, 32.9° (Epoch: 28 July)

Event Time Altitude Azimuth Distance (km) Brightness Sun altitude
Rises 04:13:53 0° 276° (W) 4,784 12.2 -21.4°
Reaches altitude 10° 04:17:57 10° 269° (W) 3,375 11.2 -21.8°
Maximum altitude 04:24:52 34° 208° (SSW) 1,513 8.7 -22.5°
Enters shadow 04:25:23 33° 198° (SSW) 1,490 8.6 -22.6°
